Las Vegas Municipal Airport
KLVS : now visible

Airfield :











YOU CAN JOIN US ON...

 
LOGIN :

Register | Disclaimer

   EN    FR    IT 

 









Legend :    VFR   Marginal VFR   IFR   Intensive IFR   Very Intensive IFR
Visi :
Ceiling :
>= 8 km
>= 3000ft
5 to 8 km
1000 to 3000 ft
1500m to 5 km
500 to 1000 ft
800 to 1500m
200 to 500 ft
< 800m
< 200 ft
Symbols :   Thunderstorms  Fog  Heavy snow  Heavy precipitations  Wind > 20 kt






- Airport Elevation : 6877 ft


KLVS - Las Vegas Municipal

CURRENT METAR :
  • 100453Z AUTO 03009KT 10SM CLR 05/02 A3016 RMK AO2 SLP140 T00500022

EXPIRED METARs :
  • 100353Z AUTO 07010KT 10SM CLR 06/02 A3013 RMK AO2 SLP132 T00610022
  • 100253Z AUTO 08012KT 10SM SCT100 09/03 A3009 RMK AO2 SLP112 T00940028 53025

TAF KLVS
Valid from the 10 at 06:00 until the 11 at 06:00 UTC


100520Z 1006/1106 08011KT P6SM SKC
FM100800 11007KT P6SM BKN030
FM101100 14007KT 4SM BR OVC015
FM101800 18014KT P6SM OVC025
FM102100 21018G26KT P6SM FEW070
FM110300 19012KT P6SM SCT025



MET'MAP, your aeronautical weather chart ! - Copyright ORBIFLY December 2007 - Disclaimer

ORBIFLY MET'MAP TEAM :

Programming & Development : Alexandra Zaïnal
Concept & original design : Baudouin d'Aumeries
Assistance for programming : Marc-Olivier Méhu
Technical & hardware support : Manuel Goepfert

Contact : metmap@orbifly.com




SOURCES & CREDITS :

   NOAA       Earth
Advisory